TimeCDT,TemperatureF,Dew PointF,Humidity,Sea Level PressureIn,VisibilityMPH,Wind Direction,Wind SpeedMPH,Gust SpeedMPH,PrecipitationIn,Events,Conditions,WindDirDegrees,DateUTC
12:54 AM,57.9,51.1,78,29.81,10.0,SE,6.9,-,N/A,,Clear,140,2013-09-23 05:54:00
1:54 AM,53.1,48.9,86,29.81,10.0,SE,4.6,-,N/A,,Clear,130,2013-09-23 06:54:00
2:54 AM,55.0,50.0,83,29.80,10.0,SE,6.9,-,N/A,,Clear,130,2013-09-23 07:54:00
3:54 AM,55.0,50.0,83,29.79,10.0,SE,8.1,-,N/A,,Clear,140,2013-09-23 08:54:00
4:54 AM,55.0,50.0,83,29.78,10.0,SE,5.8,-,N/A,,Clear,140,2013-09-23 09:54:00
5:54 AM,54.0,50.0,86,29.78,10.0,SE,8.1,-,N/A,,Clear,140,2013-09-23 10:54:00
6:54 AM,55.0,50.0,83,29.80,10.0,SE,9.2,-,N/A,,Clear,140,2013-09-23 11:54:00
7:54 AM,55.9,51.1,84,29.81,10.0,SE,9.2,-,N/A,,Clear,140,2013-09-23 12:54:00
8:54 AM,59.0,51.1,75,29.81,10.0,SE,11.5,-,N/A,,Clear,140,2013-09-23 13:54:00
9:54 AM,64.0,52.0,65,29.81,10.0,SE,12.7,-,N/A,,Clear,140,2013-09-23 14:54:00
10:54 AM,70.0,52.0,53,29.80,10.0,SSE,13.8,21.9,N/A,,Clear,160,2013-09-23 15:54:00
11:54 AM,73.0,52.0,48,29.79,10.0,SSE,16.1,23.0,N/A,,Clear,150,2013-09-23 16:54:00
12:54 PM,77.0,52.0,42,29.76,10.0,SSE,18.4,25.3,N/A,,Clear,150,2013-09-23 17:54:00
1:54 PM,78.1,51.1,39,29.74,10.0,SE,21.9,27.6,N/A,,Clear,140,2013-09-23 18:54:00
2:54 PM,79.0,50.0,36,29.71,10.0,SSE,23.0,32.2,N/A,,Clear,150,2013-09-23 19:54:00
3:54 PM,79.0,50.0,36,29.72,10.0,SE,17.3,31.1,N/A,,Clear,140,2013-09-23 20:54:00
4:54 PM,79.0,50.0,36,29.71,10.0,SSE,19.6,27.6,N/A,,Clear,150,2013-09-23 21:54:00
5:54 PM,77.0,48.9,37,29.72,10.0,SSE,16.1,24.2,N/A,,Clear,150,2013-09-23 22:54:00
6:54 PM,72.0,50.0,46,29.73,10.0,SE,10.4,-,N/A,,Clear,130,2013-09-23 23:54:00
7:54 PM,68.0,53.1,59,29.74,10.0,ESE,11.5,-,0.00,Rain,Light Rain,120,2013-09-24 00:54:00
8:54 PM,66.9,52.0,59,29.75,10.0,ESE,10.4,-,0.00,Rain,Light Rain,120,2013-09-24 01:54:00
9:54 PM,66.9,50.0,54,29.75,10.0,ESE,11.5,-,0.00,,Mostly Cloudy,120,2013-09-24 02:54:00
10:54 PM,66.0,50.0,56,29.74,10.0,SE,12.7,-,N/A,,Partly Cloudy,130,2013-09-24 03:54:00
11:54 PM,66.0,50.0,56,29.73,10.0,ESE,11.5,-,N/A,,Mostly Cloudy,120,2013-09-24 04:54:00